Weather History for Kaiser, MO

Change the Weather History Date:

Tuesday, January 15, 2013

  Actual Average Record
Temperature  
Mean Temperature 17 °F -  
Max Temperature 26 °F 38 °F 64 °F (2000)
Min Temperature 8 °F 21 °F 0 °F (2009)
Degree Days  
Heating Degree Days 48    
Moisture  
Dew Point 15 °F    
Average Humidity 84    
Maximum Humidity 93    
Minimum Humidity 74    
Precipitation  
Precipitation 0.00 in - - ()
Sea Level Pressure  
Sea Level Pressure 30.30 in    
Wind  
Wind Speed - (North)    
Max Wind Speed -    
Max Gust Speed -    
Visibility 10 miles    
Events      
Averages and records for this station are not official NWS values.
T = Trace of Precipitation, MM = Missing Value Source: NWS Daily Summary

Daily Weather History Graph

Daily Weather History Graph

Search for Another Location

Airport:

Trip Planner

Search our weather history database for the weather conditions in past years. The results will help you decide how hot, cold, wet, or windy it might be!

Date:

Astronomy

Jan. 15, 2013 Rise Set
Actual Time 7:25 AM CST 5:14 PM CST
Civil Twilight 6:56 AM CST 5:43 PM CST
Nautical Twilight 6:23 AM CST 6:15 PM CST
Astronomical Twilight 5:52 AM CST 6:47 PM CST
Moon 9:35 AM CST (1/15) 9:59 PM CST (1/15)
Length of Visible Light 10h 47m
Length of Day
9h 49m
Waxing Crescent, 19% of the Moon is Illuminated
Jan 15
Waxing Crescent
Jan 18
First Quarter
Jan 26
Full
Feb 3
Last Quarter
Feb 10
New

Hourly Weather History & Observations

Time (CST) Temp. Dew Point Humidity Pressure Visibility Wind Dir Wind Speed Gust Speed Precip Events Conditions
12:15 AM 15.8 °F 12.2 °F 86% 30.41 in 10.0 mi North - - N/A   Unknown
12:35 AM 15.8 °F 10.4 °F 79% 30.40 in 10.0 mi North - - N/A   Unknown
12:55 AM 15.8 °F 10.4 °F 79% 30.40 in 10.0 mi North - - N/A   Unknown
1:15 AM 12.2 °F 8.6 °F 85% 30.39 in 10.0 mi North - - N/A   Unknown
1:35 AM 14.0 °F 10.4 °F 86% 30.38 in 10.0 mi North - - N/A   Unknown
1:55 AM 12.2 °F 8.6 °F 85% 30.39 in 10.0 mi North - - N/A   Unknown
2:15 AM 15.8 °F 10.4 °F 79% 30.39 in 10.0 mi North - - N/A   Unknown
2:35 AM 15.8 °F 10.4 °F 79% 30.39 in 10.0 mi North - - N/A   Unknown
2:55 AM 12.2 °F 8.6 °F 85% 30.39 in 10.0 mi North - - N/A   Unknown
3:35 AM 12.2 °F 10.4 °F 92% 30.37 in 10.0 mi North - - N/A   Unknown
3:55 AM 12.2 °F 10.4 °F 92% 30.36 in 10.0 mi North - - N/A   Unknown
4:15 AM 12.2 °F 8.6 °F 85% 30.36 in 10.0 mi North - - N/A   Unknown
4:55 AM 8.6 °F 6.8 °F 92% 30.35 in 10.0 mi North - - N/A   Unknown
5:15 AM 12.2 °F 8.6 °F 85% 30.36 in 10.0 mi North - - N/A   Unknown
5:35 AM 8.6 °F 3.2 °F 79% 30.36 in 10.0 mi North - - N/A   Unknown
6:15 AM 10.4 °F 8.6 °F 92% 30.37 in 10.0 mi North - - N/A   Unknown
6:35 AM 8.6 °F 3.2 °F 79% 30.36 in 10.0 mi North - - N/A   Unknown
6:55 AM 8.6 °F 6.8 °F 92% 30.36 in 10.0 mi North - - N/A   Unknown
7:15 AM 10.4 °F 8.6 °F 92% 30.36 in 10.0 mi North - - N/A   Unknown
7:35 AM 12.2 °F 8.6 °F 85% 30.36 in 10.0 mi North - - N/A   Unknown
7:55 AM 12.2 °F 10.4 °F 92% 30.33 in 8.0 mi North - - N/A   Unknown
8:15 AM 15.8 °F 12.2 °F 86% 30.36 in 10.0 mi North - - N/A   Unknown
8:35 AM 15.8 °F 10.4 °F 79% 30.34 in 10.0 mi North - - N/A   Unknown
8:55 AM 15.8 °F 12.2 °F 86% 30.33 in 10.0 mi North - - N/A   Unknown
9:15 AM 17.6 °F 15.8 °F 93% 30.34 in 10.0 mi North - - N/A   Unknown
9:35 AM 17.6 °F 15.8 °F 93% 30.38 in 9.0 mi North - - N/A   Unknown
9:55 AM 19.4 °F 15.8 °F 86% 30.39 in 10.0 mi North - - N/A   Unknown
10:15 AM 19.4 °F 15.8 °F 86% 30.39 in 10.0 mi North - - N/A   Unknown
10:35 AM 19.4 °F 15.8 °F 86% 30.38 in 10.0 mi North - - N/A   Unknown
10:55 AM 19.4 °F 15.8 °F 86% 30.36 in 10.0 mi North - - N/A   Unknown
11:15 AM 21.2 °F 15.8 °F 80% 30.34 in 8.0 mi North - - N/A   Unknown
11:35 AM 21.2 °F 17.6 °F 86% 30.33 in 9.0 mi North - - N/A   Unknown
11:55 AM 23.0 °F 19.4 °F 86% 30.32 in 9.0 mi North - - N/A   Unknown
12:15 PM 23.0 °F 17.6 °F 80% 30.31 in 10.0 mi North - - N/A   Unknown
12:35 PM 23.0 °F 17.6 °F 80% 30.30 in 9.0 mi North - - N/A   Unknown
12:55 PM 23.0 °F 17.6 °F 80% 30.30 in 9.0 mi North - - N/A   Unknown
1:15 PM 24.8 °F 19.4 °F 80% 30.29 in 9.0 mi North - - N/A   Unknown
1:35 PM 24.8 °F 17.6 °F 74% 30.29 in 10.0 mi North - - N/A   Unknown
1:55 PM 24.8 °F 17.6 °F 74% 30.27 in 10.0 mi North - - N/A   Unknown
2:15 PM 24.8 °F 17.6 °F 74% 30.27 in 10.0 mi North - - N/A   Unknown
2:35 PM 24.8 °F 19.4 °F 80% 30.27 in 10.0 mi North - - N/A   Unknown
2:55 PM 24.8 °F 19.4 °F 80% 30.26 in 10.0 mi North - - N/A   Unknown
3:15 PM 26.6 °F 19.4 °F 74% 30.25 in 10.0 mi North - - N/A   Unknown
3:35 PM 26.6 °F 19.4 °F 74% 30.25 in 10.0 mi North - - N/A   Unknown
3:55 PM 24.8 °F 19.4 °F 80% 30.25 in 10.0 mi North - - N/A   Unknown
4:15 PM 26.6 °F 19.4 °F 74% 30.24 in 10.0 mi North - - N/A   Unknown
4:35 PM 24.8 °F 19.4 °F 80% 30.24 in 10.0 mi North - - N/A   Unknown
4:55 PM 24.8 °F 19.4 °F 80% 30.24 in 10.0 mi North - - N/A   Unknown
5:35 PM 24.8 °F 19.4 °F 80% 30.25 in 10.0 mi North - - N/A   Unknown
5:55 PM 24.8 °F 21.2 °F 86% 30.25 in 10.0 mi North - - N/A   Unknown
6:15 PM 24.8 °F 19.4 °F 80% 30.24 in 10.0 mi North - - N/A   Unknown
6:35 PM 24.8 °F 19.4 °F 80% 30.24 in 10.0 mi North - - N/A   Unknown
6:55 PM 23.0 °F 19.4 °F 86% 30.24 in 10.0 mi North - - N/A   Unknown
7:15 PM 23.0 °F 19.4 °F 86% 30.24 in 8.0 mi North - - N/A   Unknown
7:35 PM 24.8 °F 19.4 °F 80% 30.23 in 10.0 mi North - - N/A   Unknown
7:55 PM 24.8 °F 21.2 °F 86% 30.24 in 9.0 mi North - - N/A   Unknown
8:15 PM 24.8 °F 19.4 °F 80% 30.23 in 10.0 mi North - - N/A   Unknown
8:35 PM 24.8 °F 19.4 °F 80% 30.23 in 10.0 mi North - - N/A   Unknown
8:55 PM 21.2 °F 19.4 °F 93% 30.22 in 9.0 mi North - - N/A   Unknown
9:15 PM 21.2 °F 17.6 °F 86% 30.21 in 10.0 mi North - - N/A   Unknown
9:35 PM 21.2 °F 17.6 °F 86% 30.21 in 10.0 mi North - - N/A   Unknown
9:55 PM 19.4 °F 15.8 °F 86% 30.20 in 8.0 mi North - - N/A   Unknown
10:15 PM 17.6 °F 14.0 °F 86% 30.18 in 9.0 mi North - - N/A   Unknown
10:35 PM 17.6 °F 14.0 °F 86% 30.19 in 10.0 mi North - - N/A   Unknown
10:55 PM 17.6 °F 15.8 °F 93% 30.20 in 10.0 mi North - - N/A   Unknown
11:15 PM 15.8 °F 10.4 °F 79% 30.20 in 10.0 mi North - - N/A   Unknown
11:35 PM 15.8 °F 12.2 °F 86% 30.19 in 9.0 mi North - - N/A   Unknown